Year,Month,Day,Hour,Minute,Value (Times are PST for temperature in C)
2013,08,22,00,00,14.70
2013,08,22,00,01,14.60
2013,08,22,00,02,14.60
2013,08,22,00,03,14.60
2013,08,22,00,04,14.60
2013,08,22,00,05,14.60
2013,08,22,00,06,14.60
2013,08,22,00,07,14.50
2013,08,22,00,08,14.50
2013,08,22,00,09,14.50
2013,08,22,00,10,14.50
2013,08,22,00,11,14.50
2013,08,22,00,12,14.50
2013,08,22,00,13,14.40
2013,08,22,00,14,14.40
2013,08,22,00,15,14.40
2013,08,22,00,16,14.40
2013,08,22,00,17,14.40
2013,08,22,00,18,14.40
2013,08,22,00,19,14.40
2013,08,22,00,20,14.40
2013,08,22,00,21,14.40
2013,08,22,00,22,14.30
2013,08,22,00,23,14.30
2013,08,22,00,24,14.30
2013,08,22,00,25,14.30
2013,08,22,00,26,14.30
2013,08,22,00,27,14.30
2013,08,22,00,28,14.30
2013,08,22,00,29,14.30
2013,08,22,00,30,14.30
2013,08,22,00,31,14.30
2013,08,22,00,32,14.20
2013,08,22,00,33,14.20
2013,08,22,00,34,14.20
2013,08,22,00,35,14.20
2013,08,22,00,36,14.20
2013,08,22,00,37,14.20
2013,08,22,00,38,14.20
2013,08,22,00,39,14.10
2013,08,22,00,40,14.10
2013,08,22,00,41,14.10
2013,08,22,00,42,14.10
2013,08,22,00,43,14.10
2013,08,22,00,44,14.10
2013,08,22,00,45,14.10
2013,08,22,00,46,14.10
2013,08,22,00,47,14.10
2013,08,22,00,48,14.00
2013,08,22,00,49,14.00
2013,08,22,00,50,14.00
2013,08,22,00,51,14.00
2013,08,22,00,52,13.90
2013,08,22,00,53,13.90
2013,08,22,00,54,13.90
2013,08,22,00,55,13.90
2013,08,22,00,56,13.90
2013,08,22,00,57,13.90
2013,08,22,00,58,13.80
2013,08,22,00,59,13.80
2013,08,22,01,00,13.80
2013,08,22,01,01,13.80
2013,08,22,01,02,13.80
2013,08,22,01,03,13.70
2013,08,22,01,04,13.70
2013,08,22,01,05,13.70
2013,08,22,01,06,13.70
2013,08,22,01,07,13.70
2013,08,22,01,08,13.70
2013,08,22,01,09,13.70
2013,08,22,01,10,13.70
2013,08,22,01,11,13.60
2013,08,22,01,12,13.60
2013,08,22,01,13,13.60
2013,08,22,01,14,13.60
2013,08,22,01,15,13.60
2013,08,22,01,16,13.50
2013,08,22,01,17,13.50
2013,08,22,01,18,13.50
2013,08,22,01,19,13.40
2013,08,22,01,20,13.40
2013,08,22,01,21,13.40
2013,08,22,01,22,13.40
2013,08,22,01,23,13.30
2013,08,22,01,24,13.30
2013,08,22,01,25,13.30
2013,08,22,01,26,13.30
2013,08,22,01,27,13.30
2013,08,22,01,28,13.20
2013,08,22,01,29,13.20
2013,08,22,01,30,13.20
2013,08,22,01,31,13.20
2013,08,22,01,32,13.20
2013,08,22,01,33,13.10
2013,08,22,01,34,13.10
2013,08,22,01,35,13.10
2013,08,22,01,36,13.10
2013,08,22,01,37,13.10
2013,08,22,01,38,13.10
2013,08,22,01,39,13.10
2013,08,22,01,40,13.10
2013,08,22,01,41,13.10
2013,08,22,01,42,13.00
2013,08,22,01,43,13.00
2013,08,22,01,44,13.00
2013,08,22,01,45,13.00
2013,08,22,01,46,12.90
2013,08,22,01,47,12.90
2013,08,22,01,48,12.90
2013,08,22,01,49,12.90
2013,08,22,01,50,12.90
2013,08,22,01,51,12.90
2013,08,22,01,52,12.80
2013,08,22,01,53,12.80
2013,08,22,01,54,12.80
2013,08,22,01,55,12.80
2013,08,22,01,56,12.80
2013,08,22,01,57,12.80
2013,08,22,01,58,12.80
2013,08,22,01,59,12.80
2013,08,22,02,00,12.80
2013,08,22,02,01,12.70
2013,08,22,02,02,12.70
2013,08,22,02,03,12.70
2013,08,22,02,04,12.70
2013,08,22,02,05,12.70
2013,08,22,02,06,12.70
2013,08,22,02,07,12.80
2013,08,22,02,08,12.80
2013,08,22,02,09,12.80
2013,08,22,02,10,12.80
2013,08,22,02,11,12.80
2013,08,22,02,12,12.80
2013,08,22,02,13,12.80
2013,08,22,02,14,12.80
2013,08,22,02,15,12.80
2013,08,22,02,16,12.80
2013,08,22,02,17,12.70
2013,08,22,02,18,12.70
2013,08,22,02,19,12.70
2013,08,22,02,20,12.70
2013,08,22,02,21,12.60
2013,08,22,02,22,12.60
2013,08,22,02,23,12.60
2013,08,22,02,24,12.60
2013,08,22,02,25,12.50
2013,08,22,02,26,12.50
2013,08,22,02,27,12.50
2013,08,22,02,28,12.40
2013,08,22,02,29,12.40
2013,08,22,02,30,12.40
2013,08,22,02,31,12.30
2013,08,22,02,32,12.30
2013,08,22,02,33,12.30
2013,08,22,02,34,12.30
2013,08,22,02,35,12.30
2013,08,22,02,36,12.30
2013,08,22,02,37,12.20
2013,08,22,02,38,12.20
2013,08,22,02,39,12.30
2013,08,22,02,40,12.30
2013,08,22,02,41,12.30
2013,08,22,02,42,12.30
2013,08,22,02,43,12.30
2013,08,22,02,44,12.30
2013,08,22,02,45,12.30
2013,08,22,02,46,12.30
2013,08,22,02,47,12.30
2013,08,22,02,48,12.30
2013,08,22,02,49,12.30
2013,08,22,02,50,12.30
2013,08,22,02,51,12.30
2013,08,22,02,52,12.30
2013,08,22,02,53,12.30
2013,08,22,02,54,12.30
2013,08,22,02,55,12.30
2013,08,22,02,56,12.30
2013,08,22,02,57,12.20
2013,08,22,02,58,12.20
2013,08,22,02,59,12.20
2013,08,22,03,00,12.20
2013,08,22,03,01,12.20
2013,08,22,03,02,12.20
2013,08,22,03,03,12.20
2013,08,22,03,04,12.20
2013,08,22,03,05,12.10
2013,08,22,03,06,12.10
2013,08,22,03,07,12.10
2013,08,22,03,08,12.10
2013,08,22,03,09,12.10
2013,08,22,03,10,12.10
2013,08,22,03,11,12.10
2013,08,22,03,12,12.10
2013,08,22,03,13,12.10
2013,08,22,03,14,12.10
2013,08,22,03,15,12.00
2013,08,22,03,16,12.00
2013,08,22,03,17,12.00
2013,08,22,03,18,11.90
2013,08,22,03,19,11.90
2013,08,22,03,20,11.90
2013,08,22,03,21,11.90
2013,08,22,03,22,11.90
2013,08,22,03,23,11.90
2013,08,22,03,24,11.90
2013,08,22,03,25,11.90
2013,08,22,03,26,11.80
2013,08,22,03,27,11.80
2013,08,22,03,28,11.80
2013,08,22,03,29,11.80
2013,08,22,03,30,11.80
2013,08,22,03,31,11.80
2013,08,22,03,32,11.80
2013,08,22,03,33,11.80
2013,08,22,03,34,11.80
2013,08,22,03,35,11.70
2013,08,22,03,36,11.70
2013,08,22,03,37,11.70
2013,08,22,03,38,11.70
2013,08,22,03,39,11.70
2013,08,22,03,40,11.60
2013,08,22,03,41,11.60
2013,08,22,03,42,11.60
2013,08,22,03,43,11.60
2013,08,22,03,44,11.60
2013,08,22,03,45,11.60
2013,08,22,03,46,11.60
2013,08,22,03,47,11.60
2013,08,22,03,48,11.60
2013,08,22,03,49,11.60
2013,08,22,03,50,11.60
2013,08,22,03,51,11.60
2013,08,22,03,52,11.60
2013,08,22,03,53,11.60
2013,08,22,03,54,11.60
2013,08,22,03,55,11.60
2013,08,22,03,56,11.50
2013,08,22,03,57,11.50
2013,08,22,03,58,11.50
2013,08,22,03,59,11.50
2013,08,22,04,00,11.50
2013,08,22,04,01,11.50
2013,08,22,04,02,11.50
2013,08,22,04,03,11.60
2013,08,22,04,04,11.60
2013,08,22,04,05,11.60
2013,08,22,04,06,11.60
2013,08,22,04,07,11.60
2013,08,22,04,08,11.60
2013,08,22,04,09,11.60
2013,08,22,04,10,11.60
2013,08,22,04,11,11.60
2013,08,22,04,12,11.60
2013,08,22,04,13,11.60
2013,08,22,04,14,11.60
2013,08,22,04,15,11.60
2013,08,22,04,16,11.60
2013,08,22,04,17,11.60
2013,08,22,04,18,11.50
2013,08,22,04,19,11.50
2013,08,22,04,20,11.50
2013,08,22,04,21,11.40
2013,08,22,04,22,11.40
2013,08,22,04,23,11.40
2013,08,22,04,24,11.40
2013,08,22,04,25,11.30
2013,08,22,04,26,11.30
2013,08,22,04,27,11.30
2013,08,22,04,28,11.30
2013,08,22,04,29,11.30
2013,08,22,04,30,11.30
2013,08,22,04,31,11.30
2013,08,22,04,32,11.30
2013,08,22,04,33,11.30
2013,08,22,04,34,11.30
2013,08,22,04,35,11.20
2013,08,22,04,36,11.20
2013,08,22,04,37,11.20
2013,08,22,04,38,11.20
2013,08,22,04,39,11.20
2013,08,22,04,40,11.20
2013,08,22,04,41,11.20
2013,08,22,04,42,11.20
2013,08,22,04,43,11.20
2013,08,22,04,44,11.20
2013,08,22,04,45,11.10
2013,08,22,04,46,11.20
2013,08,22,04,47,11.20
2013,08,22,04,48,11.20
2013,08,22,04,49,11.20
2013,08,22,04,50,11.20
2013,08,22,04,51,11.20
2013,08,22,04,52,11.20
2013,08,22,04,53,11.20
2013,08,22,04,54,11.10
2013,08,22,04,55,11.10
2013,08,22,04,56,11.10
2013,08,22,04,57,11.10
2013,08,22,04,58,11.10
2013,08,22,04,59,11.10
2013,08,22,05,00,11.10
2013,08,22,05,01,11.10
2013,08,22,05,02,11.10
2013,08,22,05,03,11.10
2013,08,22,05,04,11.10
2013,08,22,05,05,11.10
2013,08,22,05,06,11.10
2013,08,22,05,07,11.10
2013,08,22,05,08,11.10
2013,08,22,05,09,11.10
2013,08,22,05,10,11.00
2013,08,22,05,11,11.00
2013,08,22,05,12,11.00
2013,08,22,05,13,10.90
2013,08,22,05,14,10.90
2013,08,22,05,15,10.90
2013,08,22,05,16,10.90
2013,08,22,05,17,10.90
2013,08,22,05,18,10.90
2013,08,22,05,19,10.90
2013,08,22,05,20,10.80
2013,08,22,05,21,10.80
2013,08,22,05,22,10.80
2013,08,22,05,23,10.80
2013,08,22,05,24,10.80
2013,08,22,05,25,10.80
2013,08,22,05,26,10.80
2013,08,22,05,27,10.70
2013,08,22,05,28,10.70
2013,08,22,05,29,10.70
2013,08,22,05,30,10.70
2013,08,22,05,31,10.70
2013,08,22,05,32,10.70
2013,08,22,05,33,10.70
2013,08,22,05,34,10.70
2013,08,22,05,35,10.70
2013,08,22,05,36,10.70
2013,08,22,05,37,10.70
2013,08,22,05,38,10.70
2013,08,22,05,39,10.70
2013,08,22,05,40,10.70
2013,08,22,05,41,10.70
2013,08,22,05,42,10.70
2013,08,22,05,43,10.70
2013,08,22,05,44,10.70
2013,08,22,05,45,10.70
2013,08,22,05,46,10.70
2013,08,22,05,47,10.70
2013,08,22,05,48,10.70
2013,08,22,05,49,10.70
2013,08,22,05,50,10.70
2013,08,22,05,51,10.70
2013,08,22,05,52,10.70
2013,08,22,05,53,10.70
2013,08,22,05,54,10.70
2013,08,22,05,55,10.70
2013,08,22,05,56,10.70
2013,08,22,05,57,10.70
2013,08,22,05,58,10.70
2013,08,22,05,59,10.70
2013,08,22,06,00,10.70
2013,08,22,06,01,10.70
2013,08,22,06,02,10.70
2013,08,22,06,03,10.70
2013,08,22,06,04,10.60
2013,08,22,06,05,10.60
2013,08,22,06,06,10.60
2013,08,22,06,07,10.60
2013,08,22,06,08,10.60
2013,08,22,06,09,10.60
2013,08,22,06,10,10.60
2013,08,22,06,11,10.60
2013,08,22,06,12,10.60
2013,08,22,06,13,10.60
2013,08,22,06,14,10.60
2013,08,22,06,15,10.60
2013,08,22,06,16,10.60
2013,08,22,06,17,10.50
2013,08,22,06,18,10.50
2013,08,22,06,19,10.50
2013,08,22,06,20,10.50
2013,08,22,06,21,10.50
2013,08,22,06,22,10.50
2013,08,22,06,23,10.50
2013,08,22,06,24,10.40
2013,08,22,06,25,10.40
2013,08,22,06,26,10.40
2013,08,22,06,27,10.40
2013,08,22,06,28,10.30
2013,08,22,06,29,10.30
2013,08,22,06,30,10.30
2013,08,22,06,31,10.30
2013,08,22,06,32,10.30
2013,08,22,06,33,10.30
2013,08,22,06,34,10.40
2013,08,22,06,35,10.40
2013,08,22,06,36,10.40
2013,08,22,06,37,10.40
2013,08,22,06,38,10.50
2013,08,22,06,39,10.50
2013,08,22,06,40,10.50
2013,08,22,06,41,10.50
2013,08,22,06,42,10.50
2013,08,22,06,43,10.50
2013,08,22,06,44,10.50
2013,08,22,06,45,10.50
2013,08,22,06,46,10.50
2013,08,22,06,47,10.50
2013,08,22,06,48,10.50
2013,08,22,06,49,10.50
2013,08,22,06,50,10.50
2013,08,22,06,51,10.50
2013,08,22,06,52,10.50
2013,08,22,06,53,10.50
2013,08,22,06,54,10.60
2013,08,22,06,55,10.60
2013,08,22,06,56,10.60
2013,08,22,06,57,10.60
2013,08,22,06,58,10.60
2013,08,22,06,59,10.60
2013,08,22,07,00,10.60
2013,08,22,07,01,10.60
2013,08,22,07,02,10.60
2013,08,22,07,03,10.60
2013,08,22,07,04,10.60
2013,08,22,07,05,10.70
2013,08,22,07,06,10.70
2013,08,22,07,07,10.70
2013,08,22,07,08,10.70
2013,08,22,07,09,10.70
2013,08,22,07,10,10.70
2013,08,22,07,11,10.70
2013,08,22,07,12,10.70
2013,08,22,07,13,10.70
2013,08,22,07,14,10.70
2013,08,22,07,15,10.70
2013,08,22,07,16,10.70
2013,08,22,07,17,10.70
2013,08,22,07,18,10.80
2013,08,22,07,19,10.80
2013,08,22,07,20,10.80
2013,08,22,07,21,10.80
2013,08,22,07,22,10.80
2013,08,22,07,23,10.90
2013,08,22,07,24,10.90
2013,08,22,07,25,10.90
2013,08,22,07,26,10.90
2013,08,22,07,27,10.90
2013,08,22,07,28,10.90
2013,08,22,07,29,11.00
2013,08,22,07,30,11.00
2013,08,22,07,31,11.00
2013,08,22,07,32,11.00
2013,08,22,07,33,11.00
2013,08,22,07,34,11.00
2013,08,22,07,35,11.00
2013,08,22,07,36,11.00
2013,08,22,07,37,11.10
2013,08,22,07,38,11.10
2013,08,22,07,39,11.10
2013,08,22,07,40,11.10
2013,08,22,07,41,11.10
2013,08,22,07,42,11.20
2013,08,22,07,43,11.20
2013,08,22,07,44,11.20
2013,08,22,07,45,11.30
2013,08,22,07,46,11.30
2013,08,22,07,47,11.30
2013,08,22,07,48,11.40
2013,08,22,07,49,11.40
2013,08,22,07,50,11.50
2013,08,22,07,51,11.60
2013,08,22,07,52,11.60
2013,08,22,07,53,11.70
2013,08,22,07,54,11.80
2013,08,22,07,55,11.80
2013,08,22,07,56,11.90
2013,08,22,07,57,12.00
2013,08,22,07,58,12.00
2013,08,22,07,59,12.10
2013,08,22,08,00,12.20
2013,08,22,08,01,12.30
2013,08,22,08,02,12.30
2013,08,22,08,03,12.40
2013,08,22,08,04,12.50
2013,08,22,08,05,12.60
2013,08,22,08,06,12.70
2013,08,22,08,07,12.90
2013,08,22,08,08,13.00
2013,08,22,08,09,13.20
2013,08,22,08,10,13.30
2013,08,22,08,11,13.50
2013,08,22,08,12,13.70
2013,08,22,08,13,13.80
2013,08,22,08,14,14.00
2013,08,22,08,15,14.20
2013,08,22,08,16,14.30
2013,08,22,08,17,14.50
2013,08,22,08,18,14.60
2013,08,22,08,19,14.80
2013,08,22,08,20,14.90
2013,08,22,08,21,15.00
2013,08,22,08,22,15.10
2013,08,22,08,23,15.20
2013,08,22,08,24,15.30
2013,08,22,08,25,15.40
2013,08,22,08,26,15.50
2013,08,22,08,27,15.60
2013,08,22,08,28,15.70
2013,08,22,08,29,15.80
2013,08,22,08,30,15.80
2013,08,22,08,31,16.00
2013,08,22,08,32,16.10
2013,08,22,08,33,16.20
2013,08,22,08,34,16.30
2013,08,22,08,35,16.40
2013,08,22,08,36,16.60
2013,08,22,08,37,16.70
2013,08,22,08,38,16.80
2013,08,22,08,39,16.90
2013,08,22,08,40,17.00
2013,08,22,08,41,17.00
2013,08,22,08,42,17.10
2013,08,22,08,43,17.20
2013,08,22,08,44,17.30
2013,08,22,08,45,17.40
2013,08,22,08,46,17.50
2013,08,22,08,47,17.60
2013,08,22,08,48,17.70
2013,08,22,08,49,17.90
2013,08,22,08,50,18.00
2013,08,22,08,51,18.10
2013,08,22,08,52,18.20
2013,08,22,08,53,18.30
2013,08,22,08,54,18.40
2013,08,22,08,55,18.40
2013,08,22,08,56,18.50
2013,08,22,08,57,18.50
2013,08,22,08,58,18.60
2013,08,22,08,59,18.60
2013,08,22,09,00,18.70
2013,08,22,09,01,18.70
2013,08,22,09,02,18.70
2013,08,22,09,03,18.80
2013,08,22,09,04,18.80
2013,08,22,09,05,18.90
2013,08,22,09,06,19.00
2013,08,22,09,07,19.00
2013,08,22,09,08,19.10
2013,08,22,09,09,19.20
2013,08,22,09,10,19.30
2013,08,22,09,11,19.40
2013,08,22,09,12,19.40
2013,08,22,09,13,19.50
2013,08,22,09,14,19.60
2013,08,22,09,15,19.70
2013,08,22,09,16,19.70
2013,08,22,09,17,19.70
2013,08,22,09,18,19.80
2013,08,22,09,19,19.80
2013,08,22,09,20,19.80
2013,08,22,09,21,19.90
2013,08,22,09,22,19.90
2013,08,22,09,23,19.90
2013,08,22,09,24,20.00
2013,08,22,09,25,20.10
2013,08,22,09,26,20.10
2013,08,22,09,27,20.20
2013,08,22,09,28,20.40
2013,08,22,09,29,20.50
2013,08,22,09,30,20.60
2013,08,22,09,31,20.70
2013,08,22,09,32,20.80
2013,08,22,09,33,21.00
2013,08,22,09,34,21.10
2013,08,22,09,35,21.20
2013,08,22,09,36,21.30
2013,08,22,09,37,21.40
2013,08,22,09,38,21.50
2013,08,22,09,39,21.60
2013,08,22,09,40,21.70
2013,08,22,09,41,21.80
2013,08,22,09,42,21.90
2013,08,22,09,43,22.00
2013,08,22,09,44,22.00
2013,08,22,09,45,22.00
2013,08,22,09,46,21.90
2013,08,22,09,47,21.90
2013,08,22,09,48,21.90
2013,08,22,09,49,22.00
2013,08,22,09,50,22.10
2013,08,22,09,51,22.20
2013,08,22,09,52,22.20
2013,08,22,09,53,22.30
2013,08,22,09,54,22.40
2013,08,22,09,55,22.50
2013,08,22,09,56,22.50
2013,08,22,09,57,22.60
2013,08,22,09,58,22.70
2013,08,22,09,59,22.70
2013,08,22,10,00,22.80
2013,08,22,10,01,22.90
2013,08,22,10,02,22.90
2013,08,22,10,03,23.00
2013,08,22,10,04,23.10
2013,08,22,10,05,23.10
2013,08,22,10,06,23.20
2013,08,22,10,07,23.20
2013,08,22,10,08,23.30
2013,08,22,10,09,23.30
2013,08,22,10,10,23.30
2013,08,22,10,11,23.20
2013,08,22,10,12,23.10
2013,08,22,10,13,23.10
2013,08,22,10,14,23.10
2013,08,22,10,15,23.10
2013,08,22,10,16,23.20
2013,08,22,10,17,23.20
2013,08,22,10,18,23.20
2013,08,22,10,19,23.20
2013,08,22,10,20,23.20
2013,08,22,10,21,23.20
2013,08,22,10,22,23.20
2013,08,22,10,23,23.10
2013,08,22,10,24,23.10
2013,08,22,10,25,23.10
2013,08,22,10,26,23.10
2013,08,22,10,27,23.10
2013,08,22,10,28,23.00
2013,08,22,10,29,23.10
2013,08,22,10,30,23.10
2013,08,22,10,31,23.10
2013,08,22,10,32,23.20
2013,08,22,10,33,23.20
2013,08,22,10,34,23.20
2013,08,22,10,35,23.20
2013,08,22,10,36,23.20
2013,08,22,10,37,23.20
2013,08,22,10,38,23.20
2013,08,22,10,39,23.30
2013,08,22,10,40,23.40
2013,08,22,10,41,23.40
2013,08,22,10,42,23.40
2013,08,22,10,43,23.30
2013,08,22,10,44,23.30
2013,08,22,10,45,23.20
2013,08,22,10,46,23.20
2013,08,22,10,47,23.30
2013,08,22,10,48,23.40
2013,08,22,10,49,23.50
2013,08,22,10,50,23.60
2013,08,22,10,51,23.70
2013,08,22,10,52,23.80
2013,08,22,10,53,23.90
2013,08,22,10,54,24.00
2013,08,22,10,55,24.20
2013,08,22,10,56,24.20
2013,08,22,10,57,24.20
2013,08,22,10,58,24.20
2013,08,22,10,59,24.30
2013,08,22,11,00,24.40
2013,08,22,11,01,24.50
2013,08,22,11,02,24.60
2013,08,22,11,03,24.60
2013,08,22,11,04,24.60
2013,08,22,11,05,24.60
2013,08,22,11,06,24.60
2013,08,22,11,07,24.50
2013,08,22,11,08,24.50
2013,08,22,11,09,24.40
2013,08,22,11,10,24.50
2013,08,22,11,11,24.60
2013,08,22,11,12,24.60
2013,08,22,11,13,24.70
2013,08,22,11,14,24.70
2013,08,22,11,15,24.70
2013,08,22,11,16,24.80
2013,08,22,11,17,24.80
2013,08,22,11,18,24.90
2013,08,22,11,19,25.00
2013,08,22,11,20,25.10
2013,08,22,11,21,25.10
2013,08,22,11,22,25.20
2013,08,22,11,23,25.20
2013,08,22,11,24,25.20
2013,08,22,11,25,25.20
2013,08,22,11,26,25.10
2013,08,22,11,27,25.10
2013,08,22,11,28,25.10
2013,08,22,11,29,25.20
2013,08,22,11,30,25.20
2013,08,22,11,31,25.20
2013,08,22,11,32,25.10
2013,08,22,11,33,25.10
2013,08,22,11,34,25.10
2013,08,22,11,35,25.20
2013,08,22,11,36,25.20
2013,08,22,11,37,25.20
2013,08,22,11,38,25.30
2013,08,22,11,39,25.30
2013,08,22,11,40,25.40
2013,08,22,11,41,25.40
2013,08,22,11,42,25.30
2013,08,22,11,43,25.20
2013,08,22,11,44,25.10
2013,08,22,11,45,25.00
2013,08,22,11,46,25.00
2013,08,22,11,47,25.00
2013,08,22,11,48,25.00
2013,08,22,11,49,25.10
2013,08,22,11,50,25.10
2013,08,22,11,51,25.20
2013,08,22,11,52,25.20
2013,08,22,11,53,25.20
2013,08,22,11,54,25.20
2013,08,22,11,55,25.10
2013,08,22,11,56,25.10
2013,08,22,11,57,25.10
2013,08,22,11,58,25.20
2013,08,22,11,59,25.30
2013,08,22,12,00,25.40
2013,08,22,12,01,25.50
2013,08,22,12,02,25.60
2013,08,22,12,03,25.70
2013,08,22,12,04,25.80
2013,08,22,12,05,25.90
2013,08,22,12,06,25.90
2013,08,22,12,07,25.90
2013,08,22,12,08,25.90
2013,08,22,12,09,25.80
2013,08,22,12,10,25.80
2013,08,22,12,11,25.80
2013,08,22,12,12,25.80
2013,08,22,12,13,25.80
2013,08,22,12,14,25.90
2013,08,22,12,15,25.90
2013,08,22,12,16,25.90
2013,08,22,12,17,25.90
2013,08,22,12,18,25.90
2013,08,22,12,19,26.00
2013,08,22,12,20,26.00
2013,08,22,12,21,26.00
2013,08,22,12,22,26.10
2013,08,22,12,23,26.20
2013,08,22,12,24,26.30
2013,08,22,12,25,26.40
2013,08,22,12,26,26.40
2013,08,22,12,27,26.50
2013,08,22,12,28,26.60
2013,08,22,12,29,26.60
2013,08,22,12,30,26.50
2013,08,22,12,31,26.40
2013,08,22,12,32,26.40
2013,08,22,12,33,26.40
2013,08,22,12,34,26.40
2013,08,22,12,35,26.50
2013,08,22,12,36,26.60
2013,08,22,12,37,26.70
2013,08,22,12,38,26.80
2013,08,22,12,39,26.80
2013,08,22,12,40,26.80
2013,08,22,12,41,26.70
2013,08,22,12,42,26.70
2013,08,22,12,43,26.60
2013,08,22,12,44,26.60
2013,08,22,12,45,26.50
2013,08,22,12,46,26.40
2013,08,22,12,47,26.40
2013,08,22,12,48,26.30
2013,08,22,12,49,26.30
2013,08,22,12,50,26.20
2013,08,22,12,51,26.20
2013,08,22,12,52,26.20
2013,08,22,12,53,26.20
2013,08,22,12,54,26.20
2013,08,22,12,55,26.30
2013,08,22,12,56,26.30
2013,08,22,12,57,26.40
2013,08,22,12,58,26.40
2013,08,22,12,59,26.40
2013,08,22,13,00,26.40
2013,08,22,13,01,26.40
2013,08,22,13,02,26.40
2013,08,22,13,03,26.50
2013,08,22,13,04,26.60
2013,08,22,13,05,26.70
2013,08,22,13,06,26.80
2013,08,22,13,07,26.80
2013,08,22,13,08,26.60
2013,08,22,13,09,26.60
2013,08,22,13,10,26.50
2013,08,22,13,11,26.40
2013,08,22,13,12,26.40
2013,08,22,13,13,26.40
2013,08,22,13,14,26.40
2013,08,22,13,15,26.40
2013,08,22,13,16,26.40
2013,08,22,13,17,26.30
2013,08,22,13,18,26.30
2013,08,22,13,19,26.40
2013,08,22,13,20,26.40
2013,08,22,13,21,26.50
2013,08,22,13,22,26.50
2013,08,22,13,23,26.50
2013,08,22,13,24,26.40
2013,08,22,13,25,26.40
2013,08,22,13,26,26.40
2013,08,22,13,27,26.40
2013,08,22,13,28,26.40
2013,08,22,13,29,26.40
2013,08,22,13,30,26.50
2013,08,22,13,31,26.60
2013,08,22,13,32,26.60
2013,08,22,13,33,26.70
2013,08,22,13,34,26.80
2013,08,22,13,35,26.80
2013,08,22,13,36,26.80
2013,08,22,13,37,26.70
2013,08,22,13,38,26.70
2013,08,22,13,39,26.50
2013,08,22,13,40,26.40
2013,08,22,13,41,26.40
2013,08,22,13,42,26.30
2013,08,22,13,43,26.30
2013,08,22,13,44,26.10
2013,08,22,13,45,25.90
2013,08,22,13,46,25.60
2013,08,22,13,47,25.30
2013,08,22,13,48,25.20
2013,08,22,13,49,25.00
2013,08,22,13,50,24.90
2013,08,22,13,51,24.80
2013,08,22,13,52,24.70
2013,08,22,13,53,24.70
2013,08,22,13,54,24.60
2013,08,22,13,55,24.60
2013,08,22,13,56,24.60
2013,08,22,13,57,24.60
2013,08,22,13,58,24.60
2013,08,22,13,59,24.70
2013,08,22,14,00,24.80
2013,08,22,14,01,24.90
2013,08,22,14,02,25.00
2013,08,22,14,03,25.10
2013,08,22,14,04,25.20
2013,08,22,14,05,25.30
2013,08,22,14,06,25.40
2013,08,22,14,07,25.50
2013,08,22,14,08,25.60
2013,08,22,14,09,25.70
2013,08,22,14,10,25.70
2013,08,22,14,11,25.80
2013,08,22,14,12,25.80
2013,08,22,14,13,25.80
2013,08,22,14,14,25.90
2013,08,22,14,15,26.00
2013,08,22,14,16,26.00
2013,08,22,14,17,26.10
2013,08,22,14,18,26.10
2013,08,22,14,19,26.10
2013,08,22,14,20,26.10
2013,08,22,14,21,26.10
2013,08,22,14,22,26.10
2013,08,22,14,23,26.10
2013,08,22,14,24,26.20
2013,08,22,14,25,26.20
2013,08,22,14,26,26.20
2013,08,22,14,27,26.20
2013,08,22,14,28,26.10
2013,08,22,14,29,26.10
2013,08,22,14,30,26.10
2013,08,22,14,31,26.10
2013,08,22,14,32,26.00
2013,08,22,14,33,25.90
2013,08,22,14,34,25.90
2013,08,22,14,35,26.00
2013,08,22,14,36,26.10
2013,08,22,14,37,26.20
2013,08,22,14,38,26.30
2013,08,22,14,39,26.30
2013,08,22,14,40,26.30
2013,08,22,14,41,26.20
2013,08,22,14,42,26.20
2013,08,22,14,43,26.10
2013,08,22,14,44,26.10
2013,08,22,14,45,26.10
2013,08,22,14,46,26.20
2013,08,22,14,47,26.30
2013,08,22,14,48,26.20
2013,08,22,14,49,26.10
2013,08,22,14,50,26.00
2013,08,22,14,51,25.80
2013,08,22,14,52,25.70
2013,08,22,14,53,25.70
2013,08,22,14,54,25.70
2013,08,22,14,55,25.70
2013,08,22,14,56,25.80
2013,08,22,14,57,25.90
2013,08,22,14,58,25.90
2013,08,22,14,59,25.90
2013,08,22,15,00,25.90
2013,08,22,15,01,25.80
2013,08,22,15,02,25.70
2013,08,22,15,03,25.70
2013,08,22,15,04,25.60
2013,08,22,15,05,25.60
2013,08,22,15,06,25.50
2013,08,22,15,07,25.50
2013,08,22,15,08,25.40
2013,08,22,15,09,25.40
2013,08,22,15,10,25.30
2013,08,22,15,11,25.30
2013,08,22,15,12,25.30
2013,08,22,15,13,25.40
2013,08,22,15,14,25.50
2013,08,22,15,15,25.60
2013,08,22,15,16,25.60
2013,08,22,15,17,25.70
2013,08,22,15,18,25.70
2013,08,22,15,19,25.80
2013,08,22,15,20,25.90
2013,08,22,15,21,25.90
2013,08,22,15,22,26.00
2013,08,22,15,23,26.00
2013,08,22,15,24,26.10
2013,08,22,15,25,26.10
2013,08,22,15,26,26.10
2013,08,22,15,27,26.20
2013,08,22,15,28,26.20
2013,08,22,15,29,26.10
2013,08,22,15,30,26.10
2013,08,22,15,31,26.10
2013,08,22,15,32,26.00
2013,08,22,15,33,26.00
2013,08,22,15,34,25.90
2013,08,22,15,35,25.90
2013,08,22,15,36,25.80
2013,08,22,15,37,25.80
2013,08,22,15,38,25.80
2013,08,22,15,39,25.70
2013,08,22,15,40,25.70
2013,08,22,15,41,25.80
2013,08,22,15,42,25.80
2013,08,22,15,43,25.90
2013,08,22,15,44,26.00
2013,08,22,15,45,26.10
2013,08,22,15,46,26.00
2013,08,22,15,47,26.00
2013,08,22,15,48,25.90
2013,08,22,15,49,25.90
2013,08,22,15,50,25.90
2013,08,22,15,51,26.00
2013,08,22,15,52,26.10
2013,08,22,15,53,26.00
2013,08,22,15,54,26.00
2013,08,22,15,55,26.10
2013,08,22,15,56,26.20
2013,08,22,15,57,26.30
2013,08,22,15,58,26.40
2013,08,22,15,59,26.40
2013,08,22,16,00,26.40
2013,08,22,16,01,26.50
2013,08,22,16,02,26.50
2013,08,22,16,03,26.50
2013,08,22,16,04,26.50
2013,08,22,16,05,26.50
2013,08,22,16,06,26.50
2013,08,22,16,07,26.60
2013,08,22,16,08,26.60
2013,08,22,16,09,26.70
2013,08,22,16,10,26.70
2013,08,22,16,11,26.80
2013,08,22,16,12,26.80
2013,08,22,16,13,26.90
2013,08,22,16,14,26.90
2013,08,22,16,15,27.00
2013,08,22,16,16,27.10
2013,08,22,16,17,27.20
2013,08,22,16,18,27.30
2013,08,22,16,19,27.40
2013,08,22,16,20,27.40
2013,08,22,16,21,27.50
2013,08,22,16,22,27.60
2013,08,22,16,23,27.60
2013,08,22,16,24,27.60
2013,08,22,16,25,27.60
2013,08,22,16,26,27.60
2013,08,22,16,27,27.60
2013,08,22,16,28,27.60
2013,08,22,16,29,27.50
2013,08,22,16,30,27.50
2013,08,22,16,31,27.40
2013,08,22,16,32,27.40
2013,08,22,16,33,27.40
2013,08,22,16,34,27.40
2013,08,22,16,35,27.30
2013,08,22,16,36,27.30
2013,08,22,16,37,27.30
2013,08,22,16,38,27.30
2013,08,22,16,39,27.30
2013,08,22,16,40,27.30
2013,08,22,16,41,27.40
2013,08,22,16,42,27.30
2013,08,22,16,43,27.30
2013,08,22,16,44,27.30
2013,08,22,16,45,27.30
2013,08,22,16,46,27.40
2013,08,22,16,47,27.40
2013,08,22,16,48,27.40
2013,08,22,16,49,27.40
2013,08,22,16,50,27.40
2013,08,22,16,51,27.40
2013,08,22,16,52,27.30
2013,08,22,16,53,27.30
2013,08,22,16,54,27.20
2013,08,22,16,55,27.20
2013,08,22,16,56,27.20
2013,08,22,16,57,27.20
2013,08,22,16,58,27.20
2013,08,22,16,59,27.20
2013,08,22,17,00,27.30
2013,08,22,17,01,27.30
2013,08,22,17,02,27.40
2013,08,22,17,03,27.50
2013,08,22,17,04,27.50
2013,08,22,17,05,27.60
2013,08,22,17,06,27.70
2013,08,22,17,07,27.70
2013,08,22,17,08,27.70
2013,08,22,17,09,27.60
2013,08,22,17,10,27.60
2013,08,22,17,11,27.50
2013,08,22,17,12,27.50
2013,08,22,17,13,27.40
2013,08,22,17,14,27.40
2013,08,22,17,15,27.40
2013,08,22,17,16,27.40
2013,08,22,17,17,27.40
2013,08,22,17,18,27.40
2013,08,22,17,19,27.40